Location: Ernez
(36.4595°N, 29.8755°E)
Time: 08:28:41
(UTC+00:00)

Cosmos 2233 Rocket - Pass Details

Date: 13 November 2025
Orbit: 953 x 989 km, 82.9° (Epoch: 04 December)

Event Time Altitude Azimuth Distance (km) Brightness Sun altitude
Rises 15:20:41 0° 180° (S) 3,662 7.3 -6.0°
Reaches altitude 10° 15:23:11 10° 178° (S) 2,723 6.6 -6.5°
Maximum altitude 15:29:25 76° 94° (E) 1,017 4.0 -7.7°
Drops below altitude 10° 15:35:43 10° 10° (N) 2,754 6.1 -8.9°
Sets 15:38:15 0° 9° (N) 3,708 6.8 -9.4°
